Balikesir, Turkey

7:07 AM +03 on May 30, 2017 (GMT +0300)
Balikesir Air Base

Weather History for LTBF - May, 2013

Change the Weather History Date:

Monday, May 27, 2013

  Actual Average Record
Temperature  
Mean Temperature 66 °F -  
Max Temperature 81 °F 83 °F 86 °F (2014)
Min Temperature 52 °F 58 °F 44 °F (1998)
Cooling Degree Days 2    
Growing Degree Days 16 (Base 50)    
Moisture  
Dew Point 42 °F    
Average Humidity 43    
Maximum Humidity 77    
Minimum Humidity 12    
Precipitation  
Precipitation 0.00 in 0.03 in - ()
Sea Level Pressure  
Sea Level Pressure 29.92 in    
Wind  
Wind Speed 4 mph ()    
Max Wind Speed 13 mph    
Max Gust Speed -    
Visibility 6.1 miles    
Events      
Averages and records for this station are not official NWS values.
T = Trace of Precipitation, MM = Missing Value Source: Averaged Metar Reports

Daily Weather History Graph

Daily Weather History Graph

Search for Another Location

Airport or City:

Trip Planner

Search our weather history database for the weather conditions in past years. The results will help you decide how hot, cold, wet, or windy it might be!

Date:

Astronomy

May. 27, 2013 Rise Set
Actual Time 5:45 AM EEST 8:26 PM EEST
Civil Twilight 5:13 AM EEST 8:57 PM EEST
Nautical Twilight 4:34 AM EEST 9:37 PM EEST
Astronomical Twilight 3:49 AM EEST 10:21 PM EEST
Moon 10:49 PM EEST (5/27) 7:59 AM EEST (5/27)
Length of Visible Light 15h 44m
Length of Day
14h 41m
Waning Gibbous, 93% of the Moon is Illuminated
May 27
Waning Gibbous
May 31
Last Quarter
Jun 8
New
Jun 16
First Quarter
Jun 23
Full

Hourly Weather History & Observations

Time (EEST) Temp. Dew Point Humidity Pressure Visibility Wind Dir Wind Speed Gust Speed Precip Events Conditions
12:50 AM 59.0 °F 46.4 °F 63% 29.89 in - Calm Calm - N/A   Clear
1:50 AM 57.2 °F 46.4 °F 67% 29.89 in - South 4.6 mph - N/A   Clear
2:50 AM 57.2 °F 46.4 °F 67% 29.89 in - Calm Calm - N/A   Clear
3:00 AM 57 °F 47 °F 60% 29.89 in 6 mi Calm Calm - -  
3:50 AM 59.0 °F 46.4 °F 63% 29.89 in - SSW 3.5 mph - N/A   Clear
4:50 AM 55.4 °F 46.4 °F 72% 29.89 in - Calm Calm - N/A   Clear
5:50 AM 53.6 °F 46.4 °F 77% 29.92 in - Calm Calm - N/A   Clear
6:50 AM 57.2 °F 48.2 °F 72% 29.92 in - WSW 1.2 mph - N/A   Clear
7:50 AM 64.4 °F 50.0 °F 59% 29.92 in - Variable 2.3 mph - N/A   Clear
8:50 AM 71.6 °F 51.8 °F 50% 29.92 in - Variable 2.3 mph - N/A   Clear
9:00 AM 71 °F 51 °F 39% 29.93 in 6 mi East 2.3 mph - -  
9:50 AM 73.4 °F 48.2 °F 41% 29.92 in - SW 9.2 mph - N/A   Clear
10:50 AM 75.2 °F 46.4 °F 36% 29.92 in 6.2 mi SSW 9.2 mph - N/A   Partly Cloudy
11:50 AM 77.0 °F 42.8 °F 29% 29.92 in 6.2 mi SSW 10.4 mph - N/A   Partly Cloudy
12:50 PM 78.8 °F 41.0 °F 26% 29.92 in 6.2 mi South 10.4 mph - N/A   Partly Cloudy
1:50 PM 78.8 °F 41.0 °F 26% 29.92 in 6.2 mi WSW 12.7 mph - N/A   Partly Cloudy
2:50 PM 80.6 °F 37.4 °F 21% 29.92 in 6.2 mi West 10.4 mph - N/A   Partly Cloudy
3:00 PM 80 °F 36 °F 12% 29.92 in 6 mi West 10.4 mph - -   Scattered Clouds
3:50 PM 80.6 °F 28.4 °F 15% 29.92 in 6.2 mi West 11.5 mph - N/A   Partly Cloudy
4:50 PM 78.8 °F 32.0 °F 18% 29.92 in 6.2 mi West 12.7 mph - N/A   Partly Cloudy
5:50 PM 78.8 °F 26.6 °F 15% 29.92 in - West 9.2 mph - N/A   Clear
6:50 PM 77.0 °F 30.2 °F 18% 29.92 in - West 9.2 mph - N/A   Clear
7:50 PM 71.6 °F 35.6 °F 27% 29.92 in - WSW 9.2 mph - N/A   Clear
8:50 PM 66.2 °F 37.4 °F 35% 29.95 in - WNW 4.6 mph - N/A   Clear
9:00 PM 66 °F 37 °F 23% 29.95 in 6 mi WNW 4.6 mph - -  
9:50 PM 62.6 °F 39.2 °F 42% 29.98 in - Variable 1.2 mph - N/A   Clear
10:50 PM 57.2 °F 41.0 °F 55% 29.98 in - West 3.5 mph - N/A   Clear
11:50 PM 53.6 °F 41.0 °F 62% 30.01 in - SSW 4.6 mph - N/A   Clear